This is the latest recevied weather packets stored in our database for station/object WS2Z. If no packets are shown the sender has not sent any weather packets the latest 10 day(s).
| Time | Temp. | Humidity | Pressure | Rain* | Wind** | Luminosity | Snow |
|---|---|---|---|---|---|---|---|
| 1777849294 | 22.78° C | 84% | 1014.9 hPa | 0 mm | - | 31 W/m² | - |
| 1777848991 | 22.78° C | 84% | 1014.9 hPa | 0 mm | - | 44 W/m² | - |
| 1777848691 | 22.78° C | 84% | 1014.8 hPa | 0 mm | - | 49 W/m² | - |
| 1777848389 | 23.33° C | 83% | 1014.7 hPa | 0 mm | - | 76 W/m² | - |
| 1777848086 | 23.33° C | 83% | 1014.6 hPa | 0 mm | - | 70 W/m² | - |
| 1777847784 | 23.33° C | 83% | 1014.8 hPa | 0 mm | - | 56 W/m² | - |
| 1777847480 | 23.89° C | 83% | 1014.7 hPa | 0 mm | - | 66 W/m² | - |
| 1777847178 | 23.89° C | 82% | 1014.7 hPa | 0 mm | - | 65 W/m² | - |
| 1777846875 | 23.89° C | 83% | 1014.6 hPa | 0 mm | - | 93 W/m² | - |
| 1777846573 | 23.89° C | 83% | 1014.7 hPa | 0 mm | - | 98 W/m² | - |
| 1777846271 | 23.89° C | 82% | 1014.9 hPa | 0 mm | - | 39 W/m² | - |
| 1777845967 | 23.89° C | 82% | 1014.7 hPa | 0 mm | - | 52 W/m² | - |
| 1777845664 | 23.89° C | 82% | 1014.6 hPa | 0 mm | - | 105 W/m² | - |
| 1777845361 | 23.89° C | 82% | 1014.8 hPa | 0 mm | - | 99 W/m² | - |
| 1777845057 | 23.89° C | 81% | 1014.7 hPa | 0 mm | - | 132 W/m² | - |
| 1777844756 | 23.89° C | 82% | 1014.8 hPa | 0 mm | - | 161 W/m² | - |
| 1777844452 | 23.89° C | 82% | 1014.7 hPa | 0 mm | - | 160 W/m² | - |
| 1777844151 | 23.89° C | 82% | 1014.9 hPa | 0 mm | - | 115 W/m² | - |
| 1777843847 | 23.89° C | 82% | 1014.9 hPa | 0 mm | - | 89 W/m² | - |
| 1777843544 | 23.89° C | 82% | 1014.8 hPa | 0 mm | - | 120 W/m² | - |
| 1777843242 | 23.89° C | 82% | 1014.9 hPa | 0 mm | - | 123 W/m² | - |
| 1777842939 | 23.89° C | 81% | 1014.8 hPa | 0 mm | - | 116 W/m² | - |
| 1777842634 | 23.89° C | 82% | 1015 hPa | 0 mm | - | 135 W/m² | - |
| 1777842331 | 23.89° C | 83% | 1015.3 hPa | 0 mm | - | 110 W/m² | - |
| 1777842027 | 23.89° C | 83% | 1015.1 hPa | 0 mm | - | 66 W/m² | - |
* Rain latest hour (hover to see other rain measurements)
** Current wind speed in m/s (hover to see current wind gust speed)